Time,TemperatureF,DewpointF,PressureIn,WindDirection,WindDirectionDegrees,WindSpeedMPH,WindSpeedGustMPH,Humidity,HourlyPrecipIn,Conditions,Clouds,dailyrainin,SolarRadiationWatts/m^2,SoftwareType,DateUTC
2013-02-03 00:00:00,24.0,21.8,30.08,West,274,0.0,0.0,91,0.00,,,0.00,0,Wunderground v.1.15,2013-02-03 05:00:00,
2013-02-03 00:05:00,23.9,21.7,30.08,West,274,0.0,0.0,91,0.00,,,0.00,0,Wunderground v.1.15,2013-02-03 05:05:00,
2013-02-03 00:10:00,23.8,21.6,30.07,West,274,0.0,0.0,91,0.00,,,0.00,0,Wunderground v.1.15,2013-02-03 05:10:00,
2013-02-03 00:15:00,23.7,21.5,30.07,West,274,0.0,0.0,91,0.00,,,0.00,0,Wunderground v.1.15,2013-02-03 05:15:00,
2013-02-03 00:20:00,23.6,21.4,30.06,West,274,0.0,0.0,91,0.00,,,0.00,0,Wunderground v.1.15,2013-02-03 05:20:00,
2013-02-03 00:25:00,23.5,21.5,30.06,West,274,0.0,0.0,92,0.00,,,0.00,0,Wunderground v.1.15,2013-02-03 05:25:00,
2013-02-03 00:30:00,23.5,21.3,30.06,West,274,0.0,0.0,91,0.00,,,0.00,0,Wunderground v.1.15,2013-02-03 05:30:00,
2013-02-03 00:35:00,23.4,21.4,30.06,West,274,0.0,0.0,92,0.00,,,0.00,0,Wunderground v.1.15,2013-02-03 05:35:00,
2013-02-03 00:40:00,23.5,21.5,30.06,West,274,0.0,0.0,92,0.00,,,0.00,0,Wunderground v.1.15,2013-02-03 05:40:00,
2013-02-03 00:45:00,23.4,21.4,30.05,West,274,0.0,0.0,92,0.00,,,0.00,0,Wunderground v.1.15,2013-02-03 05:45:00,
2013-02-03 00:50:00,23.5,21.5,30.06,West,274,0.0,0.0,92,0.00,,,0.00,0,Wunderground v.1.15,2013-02-03 05:50:00,
2013-02-03 00:55:00,23.5,21.5,30.05,West,274,0.0,0.0,92,0.00,,,0.00,0,Wunderground v.1.15,2013-02-03 05:55:00,
2013-02-03 01:00:00,23.5,21.5,30.05,West,274,0.0,0.0,92,0.00,,,0.00,0,Wunderground v.1.15,2013-02-03 06:00:00,
2013-02-03 01:05:00,23.6,21.6,30.05,West,274,0.0,0.0,92,0.00,,,0.00,0,Wunderground v.1.15,2013-02-03 06:05:00,
2013-02-03 01:10:00,23.6,21.6,30.05,West,274,0.0,0.0,92,0.00,,,0.00,0,Wunderground v.1.15,2013-02-03 06:10:00,
2013-02-03 01:20:00,23.7,21.7,30.05,West,274,0.0,0.0,92,0.00,,,0.00,0,Wunderground v.1.15,2013-02-03 06:20:00,
2013-02-03 01:25:00,23.7,21.7,30.05,West,274,0.0,0.0,92,0.00,,,0.00,0,Wunderground v.1.15,2013-02-03 06:25:00,
2013-02-03 01:30:00,23.7,21.7,30.05,West,274,0.0,0.0,92,0.00,,,0.00,0,Wunderground v.1.15,2013-02-03 06:30:00,
2013-02-03 01:35:00,23.7,21.7,30.04,West,274,0.0,0.0,92,0.00,,,0.00,0,Wunderground v.1.15,2013-02-03 06:35:00,
2013-02-03 01:45:00,23.8,21.8,30.04,West,274,0.0,0.0,92,0.00,,,0.00,0,Wunderground v.1.15,2013-02-03 06:45:00,
2013-02-03 01:50:00,23.8,21.8,30.04,West,274,0.0,0.0,92,0.00,,,0.00,0,Wunderground v.1.15,2013-02-03 06:50:00,
2013-02-03 01:55:00,23.8,21.8,30.04,West,274,0.0,0.0,92,0.00,,,0.00,0,Wunderground v.1.15,2013-02-03 06:55:00,
2013-02-03 02:00:00,23.8,21.8,30.04,West,274,0.0,0.0,92,0.00,,,0.00,0,Wunderground v.1.15,2013-02-03 07:00:00,
2013-02-03 02:05:00,23.8,21.8,30.03,West,274,0.0,0.0,92,0.00,,,0.00,0,Wunderground v.1.15,2013-02-03 07:05:00,
2013-02-03 02:10:00,23.8,21.8,30.03,West,274,0.0,0.0,92,0.00,,,0.00,0,Wunderground v.1.15,2013-02-03 07:10:00,
2013-02-03 02:15:00,23.9,21.9,30.03,West,274,0.0,0.0,92,0.00,,,0.00,0,Wunderground v.1.15,2013-02-03 07:15:00,
2013-02-03 02:20:00,23.9,22.2,30.03,West,274,0.0,0.0,93,0.00,,,0.00,0,Wunderground v.1.15,2013-02-03 07:20:00,
2013-02-03 02:25:00,23.9,21.9,30.03,West,274,0.0,0.0,92,0.00,,,0.00,0,Wunderground v.1.15,2013-02-03 07:25:00,
2013-02-03 02:30:00,23.9,22.2,30.02,West,274,0.0,0.0,93,0.00,,,0.00,0,Wunderground v.1.15,2013-02-03 07:30:00,
2013-02-03 02:35:00,23.8,21.8,30.02,West,274,0.0,0.0,92,0.00,,,0.00,0,Wunderground v.1.15,2013-02-03 07:35:00,
2013-02-03 02:40:00,23.8,22.1,30.02,West,274,0.0,0.0,93,0.00,,,0.00,0,Wunderground v.1.15,2013-02-03 07:40:00,
2013-02-03 02:45:00,23.8,22.1,30.02,West,274,0.0,0.0,93,0.00,,,0.00,0,Wunderground v.1.15,2013-02-03 07:45:00,
2013-02-03 02:50:00,23.9,22.2,30.01,West,274,0.0,0.0,93,0.00,,,0.00,0,Wunderground v.1.15,2013-02-03 07:50:00,
2013-02-03 02:55:00,23.9,22.2,30.01,West,274,0.0,0.0,93,0.00,,,0.00,0,Wunderground v.1.15,2013-02-03 07:55:00,
2013-02-03 03:00:00,23.8,22.1,30.01,West,274,0.0,0.0,93,0.00,,,0.00,0,Wunderground v.1.15,2013-02-03 08:00:00,
2013-02-03 03:05:00,23.8,22.1,30.00,West,274,0.0,0.0,93,0.00,,,0.00,0,Wunderground v.1.15,2013-02-03 08:05:00,
2013-02-03 03:10:00,23.9,22.2,30.00,West,274,0.0,0.0,93,0.00,,,0.00,0,Wunderground v.1.15,2013-02-03 08:10:00,
2013-02-03 03:15:00,23.8,22.1,30.00,West,274,0.0,0.0,93,0.00,,,0.00,0,Wunderground v.1.15,2013-02-03 08:15:00,
2013-02-03 03:20:00,23.8,22.1,30.00,West,274,0.0,0.0,93,0.00,,,0.00,0,Wunderground v.1.15,2013-02-03 08:20:00,
2013-02-03 03:25:00,23.8,22.1,29.99,West,274,0.0,0.0,93,0.00,,,0.00,0,Wunderground v.1.15,2013-02-03 08:25:00,
2013-02-03 03:30:00,23.8,22.1,29.99,West,274,0.0,0.0,93,0.00,,,0.00,0,Wunderground v.1.15,2013-02-03 08:30:00,
2013-02-03 03:35:00,23.8,22.1,29.99,West,274,0.0,0.0,93,0.00,,,0.00,0,Wunderground v.1.15,2013-02-03 08:35:00,
2013-02-03 03:40:00,23.8,22.1,29.99,West,274,0.0,0.0,93,0.00,,,0.00,0,Wunderground v.1.15,2013-02-03 08:40:00,
2013-02-03 03:45:00,23.8,22.1,29.98,West,274,0.0,0.0,93,0.00,,,0.00,0,Wunderground v.1.15,2013-02-03 08:45:00,
2013-02-03 03:50:00,23.8,22.1,29.98,West,274,0.0,0.0,93,0.00,,,0.00,0,Wunderground v.1.15,2013-02-03 08:50:00,
2013-02-03 03:55:00,23.8,22.1,29.98,West,274,0.0,0.0,93,0.00,,,0.00,0,Wunderground v.1.15,2013-02-03 08:55:00,
2013-02-03 04:00:00,23.7,22.0,29.98,West,274,0.0,0.0,93,0.00,,,0.00,0,Wunderground v.1.15,2013-02-03 09:00:00,
2013-02-03 04:05:00,23.7,22.0,29.98,West,274,0.0,0.0,93,0.00,,,0.00,0,Wunderground v.1.15,2013-02-03 09:05:00,
2013-02-03 04:10:00,23.7,22.0,29.98,West,274,0.0,1.0,93,0.00,,,0.00,0,Wunderground v.1.15,2013-02-03 09:10:00,
2013-02-03 04:15:00,23.7,22.0,29.98,West,274,0.0,1.0,93,0.00,,,0.00,0,Wunderground v.1.15,2013-02-03 09:15:00,
2013-02-03 04:20:00,23.6,21.9,29.98,West,274,0.0,2.0,93,0.00,,,0.00,0,Wunderground v.1.15,2013-02-03 09:20:00,
2013-02-03 04:25:00,23.5,21.8,29.97,West,274,0.0,2.0,93,0.00,,,0.00,0,Wunderground v.1.15,2013-02-03 09:25:00,
2013-02-03 04:30:00,23.5,21.8,29.97,West,274,0.0,0.0,93,0.00,,,0.00,0,Wunderground v.1.15,2013-02-03 09:30:00,
2013-02-03 04:35:00,23.4,21.7,29.97,West,274,0.0,1.0,93,0.00,,,0.00,0,Wunderground v.1.15,2013-02-03 09:35:00,
2013-02-03 04:40:00,23.3,21.6,29.97,West,274,0.0,0.0,93,0.00,,,0.00,0,Wunderground v.1.15,2013-02-03 09:40:00,
2013-02-03 04:45:00,23.0,21.3,29.96,West,274,0.0,0.0,93,0.00,,,0.00,0,Wunderground v.1.15,2013-02-03 09:45:00,
2013-02-03 04:50:00,22.8,21.1,29.96,West,274,0.0,0.0,93,0.00,,,0.00,0,Wunderground v.1.15,2013-02-03 09:50:00,
2013-02-03 04:55:00,22.5,20.5,29.96,West,274,0.0,0.0,92,0.00,,,0.00,0,Wunderground v.1.15,2013-02-03 09:55:00,
2013-02-03 05:00:00,22.2,20.2,29.96,West,274,0.0,0.0,92,0.00,,,0.00,0,Wunderground v.1.15,2013-02-03 10:00:00,
2013-02-03 05:05:00,21.8,19.8,29.96,West,274,0.0,0.0,92,0.00,,,0.00,0,Wunderground v.1.15,2013-02-03 10:05:00,
2013-02-03 05:10:00,21.6,19.9,29.95,West,274,0.0,0.0,93,0.00,,,0.00,0,Wunderground v.1.15,2013-02-03 10:10:00,
2013-02-03 05:15:00,21.3,19.3,29.95,West,274,0.0,0.0,92,0.00,,,0.00,0,Wunderground v.1.15,2013-02-03 10:15:00,
2013-02-03 05:20:00,21.3,19.6,29.95,West,274,0.0,0.0,93,0.00,,,0.00,0,Wunderground v.1.15,2013-02-03 10:20:00,
2013-02-03 05:25:00,21.4,19.7,29.95,West,274,0.0,0.0,93,0.00,,,0.00,0,Wunderground v.1.15,2013-02-03 10:25:00,
2013-02-03 05:30:00,21.2,19.5,29.95,West,274,0.0,0.0,93,0.00,,,0.00,0,Wunderground v.1.15,2013-02-03 10:30:00,
2013-02-03 05:35:00,21.2,19.5,29.95,West,274,0.0,0.0,93,0.00,,,0.00,0,Wunderground v.1.15,2013-02-03 10:35:00,
2013-02-03 05:40:00,21.2,19.5,29.95,West,274,0.0,0.0,93,0.00,,,0.00,0,Wunderground v.1.15,2013-02-03 10:40:00,
2013-02-03 05:45:00,21.4,19.7,29.95,West,274,0.0,0.0,93,0.00,,,0.00,0,Wunderground v.1.15,2013-02-03 10:45:00,
2013-02-03 05:50:00,21.8,20.1,29.95,West,274,0.0,0.0,93,0.00,,,0.00,0,Wunderground v.1.15,2013-02-03 10:50:00,
2013-02-03 06:00:00,22.1,20.6,29.96,West,274,0.0,0.0,94,0.00,,,0.00,0,Wunderground v.1.15,2013-02-03 11:00:00,
2013-02-03 06:05:00,22.3,20.8,29.96,West,274,0.0,0.0,94,0.00,,,0.00,0,Wunderground v.1.15,2013-02-03 11:05:00,
2013-02-03 06:10:00,22.3,20.8,29.96,West,274,0.0,0.0,94,0.00,,,0.00,0,Wunderground v.1.15,2013-02-03 11:10:00,
2013-02-03 06:15:00,22.3,20.6,29.96,West,274,0.0,0.0,93,0.00,,,0.00,0,Wunderground v.1.15,2013-02-03 11:15:00,
2013-02-03 06:20:00,22.2,20.5,29.96,West,274,0.0,0.0,93,0.00,,,0.00,0,Wunderground v.1.15,2013-02-03 11:20:00,
2013-02-03 06:25:00,22.2,20.5,29.96,West,274,0.0,0.0,93,0.00,,,0.00,0,Wunderground v.1.15,2013-02-03 11:25:00,
2013-02-03 06:30:00,22.2,20.5,29.96,West,274,0.0,0.0,93,0.00,,,0.00,0,Wunderground v.1.15,2013-02-03 11:30:00,
2013-02-03 06:35:00,22.2,20.5,29.97,West,274,0.0,0.0,93,0.00,,,0.00,0,Wunderground v.1.15,2013-02-03 11:35:00,
2013-02-03 06:40:00,22.1,20.4,29.97,West,274,0.0,0.0,93,0.00,,,0.00,0,Wunderground v.1.15,2013-02-03 11:40:00,
2013-02-03 06:45:00,22.0,20.3,29.97,West,274,0.0,0.0,93,0.00,,,0.00,0,Wunderground v.1.15,2013-02-03 11:45:00,
2013-02-03 06:50:00,21.8,20.1,29.97,West,274,0.0,0.0,93,0.00,,,0.00,0,Wunderground v.1.15,2013-02-03 11:50:00,
2013-02-03 06:55:00,21.9,20.2,29.97,West,274,0.0,0.0,93,0.00,,,0.00,0,Wunderground v.1.15,2013-02-03 11:55:00,
2013-02-03 07:00:00,21.9,20.2,29.97,West,274,0.0,0.0,93,0.00,,,0.00,0,Wunderground v.1.15,2013-02-03 12:00:00,
2013-02-03 07:05:00,22.1,20.6,29.97,West,274,0.0,0.0,94,0.00,,,0.00,0,Wunderground v.1.15,2013-02-03 12:05:00,
2013-02-03 07:10:00,22.2,20.7,29.98,West,274,0.0,0.0,94,0.00,,,0.00,5,Wunderground v.1.15,2013-02-03 12:10:00,
2013-02-03 07:15:00,22.1,20.4,29.97,West,274,0.0,0.0,93,0.00,,,0.00,7,Wunderground v.1.15,2013-02-03 12:15:00,
2013-02-03 07:20:00,21.9,20.2,29.98,West,274,0.0,0.0,93,0.00,,,0.00,9,Wunderground v.1.15,2013-02-03 12:20:00,
2013-02-03 07:25:00,21.6,19.9,29.98,West,274,0.0,0.0,93,0.00,,,0.00,9,Wunderground v.1.15,2013-02-03 12:25:00,
2013-02-03 07:30:00,21.5,19.8,29.98,West,274,0.0,0.0,93,0.00,,,0.00,9,Wunderground v.1.15,2013-02-03 12:30:00,
2013-02-03 07:35:00,21.4,19.7,29.98,West,274,0.0,0.0,93,0.00,,,0.00,11,Wunderground v.1.15,2013-02-03 12:35:00,
2013-02-03 07:40:00,21.4,19.7,29.98,West,274,0.0,0.0,93,0.00,,,0.00,11,Wunderground v.1.15,2013-02-03 12:40:00,
2013-02-03 07:45:00,21.4,19.7,29.98,West,274,0.0,0.0,93,0.00,,,0.00,11,Wunderground v.1.15,2013-02-03 12:45:00,
2013-02-03 07:50:00,21.6,20.1,29.98,West,274,0.0,0.0,94,0.00,,,0.00,18,Wunderground v.1.15,2013-02-03 12:50:00,
2013-02-03 07:55:00,22.0,20.5,29.98,West,274,0.0,0.0,94,0.00,,,0.00,16,Wunderground v.1.15,2013-02-03 12:55:00,
2013-02-03 08:00:00,22.3,20.8,29.98,West,274,0.0,0.0,94,0.00,,,0.00,14,Wunderground v.1.15,2013-02-03 13:00:00,
2013-02-03 08:05:00,22.4,20.9,29.97,West,274,0.0,0.0,94,0.00,,,0.00,18,Wunderground v.1.15,2013-02-03 13:05:00,
2013-02-03 08:10:00,22.7,21.2,29.97,West,274,0.0,0.0,94,0.00,,,0.00,19,Wunderground v.1.15,2013-02-03 13:10:00,
2013-02-03 08:15:00,23.0,21.5,29.97,West,274,0.0,0.0,94,0.00,,,0.00,14,Wunderground v.1.15,2013-02-03 13:15:00,
2013-02-03 08:20:00,23.2,21.7,29.97,West,274,0.0,0.0,94,0.00,,,0.00,18,Wunderground v.1.15,2013-02-03 13:20:00,
2013-02-03 08:25:00,23.4,21.9,29.97,West,274,0.0,0.0,94,0.00,,,0.00,19,Wunderground v.1.15,2013-02-03 13:25:00,
2013-02-03 08:30:00,23.6,22.1,29.97,West,274,0.0,0.0,94,0.00,,,0.00,30,Wunderground v.1.15,2013-02-03 13:30:00,
2013-02-03 08:35:00,23.9,22.4,29.97,West,274,0.0,0.0,94,0.00,,,0.00,35,Wunderground v.1.15,2013-02-03 13:35:00,
2013-02-03 08:40:00,24.0,22.5,29.96,West,274,0.0,0.0,94,0.00,,,0.00,39,Wunderground v.1.15,2013-02-03 13:40:00,
2013-02-03 08:45:00,24.2,22.5,29.96,West,274,0.0,0.0,93,0.00,,,0.00,47,Wunderground v.1.15,2013-02-03 13:45:00,
2013-02-03 08:50:00,24.7,23.2,29.96,West,274,0.0,1.0,94,0.00,,,0.00,47,Wunderground v.1.15,2013-02-03 13:50:00,
2013-02-03 08:55:00,24.9,23.2,29.96,West,274,0.0,1.0,93,0.00,,,0.00,47,Wunderground v.1.15,2013-02-03 13:55:00,
2013-02-03 09:00:00,25.1,23.4,29.96,West,274,1.0,1.0,93,0.00,,,0.00,28,Wunderground v.1.15,2013-02-03 14:00:00,
2013-02-03 09:05:00,25.1,23.1,29.95,West,274,1.0,1.0,92,0.00,,,0.00,25,Wunderground v.1.15,2013-02-03 14:05:00,
2013-02-03 09:10:00,25.2,23.2,29.95,West,274,1.0,1.0,92,0.00,,,0.00,26,Wunderground v.1.15,2013-02-03 14:10:00,
2013-02-03 09:15:00,25.1,23.1,29.95,West,274,1.0,1.0,92,0.00,,,0.00,35,Wunderground v.1.15,2013-02-03 14:15:00,
2013-02-03 09:20:00,25.2,22.9,29.95,West,274,1.0,1.0,91,0.00,,,0.00,42,Wunderground v.1.15,2013-02-03 14:20:00,
2013-02-03 09:25:00,25.3,23.0,29.95,West,275,1.0,1.0,91,0.00,,,0.00,42,Wunderground v.1.15,2013-02-03 14:25:00,
2013-02-03 09:30:00,25.4,23.1,29.95,West,275,2.0,3.0,91,0.00,,,0.00,56,Wunderground v.1.15,2013-02-03 14:30:00,
2013-02-03 09:35:00,25.7,23.4,29.95,WNW,292,2.0,3.0,91,0.00,,,0.00,72,Wunderground v.1.15,2013-02-03 14:35:00,
2013-02-03 09:40:00,25.7,23.2,29.95,WNW,292,1.0,3.0,90,0.00,,,0.00,109,Wunderground v.1.15,2013-02-03 14:40:00,
2013-02-03 09:45:00,25.9,23.1,29.94,WNW,298,1.0,3.0,89,0.00,,,0.00,88,Wunderground v.1.15,2013-02-03 14:45:00,
2013-02-03 09:50:00,26.3,23.5,29.94,NNW,327,2.0,3.0,89,0.00,,,0.00,137,Wunderground v.1.15,2013-02-03 14:50:00,
2013-02-03 09:55:00,26.5,23.4,29.94,NNW,329,3.0,3.0,88,0.00,,,0.00,139,Wunderground v.1.15,2013-02-03 14:55:00,
2013-02-03 10:00:00,26.5,23.2,29.94,NNW,330,3.0,3.0,87,0.00,,,0.00,69,Wunderground v.1.15,2013-02-03 15:00:00,
2013-02-03 10:05:00,26.6,23.3,29.93,NNW,330,2.0,3.0,87,0.00,,,0.00,76,Wunderground v.1.15,2013-02-03 15:05:00,
2013-02-03 10:10:00,26.4,22.8,29.93,NNW,332,2.0,2.0,86,0.00,,,0.00,153,Wunderground v.1.15,2013-02-03 15:10:00,
2013-02-03 10:15:00,26.8,23.2,29.93,NNW,332,1.0,2.0,86,0.00,,,0.00,76,Wunderground v.1.15,2013-02-03 15:15:00,
2013-02-03 10:20:00,27.4,23.2,29.93,North,355,2.0,5.0,84,0.00,,,0.00,204,Wunderground v.1.15,2013-02-03 15:20:00,
2013-02-03 10:25:00,27.5,22.4,29.93,North,355,3.0,5.0,81,0.00,,,0.00,248,Wunderground v.1.15,2013-02-03 15:25:00,
2013-02-03 10:30:00,27.9,22.2,29.93,North,355,4.0,4.0,79,0.00,,,0.00,427,Wunderground v.1.15,2013-02-03 15:30:00,
2013-02-03 10:35:00,28.1,22.1,29.93,North,355,3.0,4.0,78,0.00,,,0.00,396,Wunderground v.1.15,2013-02-03 15:35:00,
2013-02-03 10:40:00,28.0,21.7,29.93,North,355,3.0,3.0,77,0.00,,,0.00,253,Wunderground v.1.15,2013-02-03 15:40:00,
2013-02-03 10:45:00,27.9,21.6,29.93,North,355,3.0,3.0,77,0.00,,,0.01,443,Wunderground v.1.15,2013-02-03 15:45:00,
2013-02-03 10:50:00,28.4,22.7,29.92,NNW,344,2.0,4.0,79,0.07,,,0.02,316,Wunderground v.1.15,2013-02-03 15:50:00,
2013-02-03 10:55:00,28.6,22.9,29.92,NNE,15,5.0,8.0,79,0.07,,,0.02,462,Wunderground v.1.15,2013-02-03 15:55:00,
2013-02-03 11:00:00,28.9,23.2,29.92,NNE,20,6.0,6.0,79,0.05,,,0.02,598,Wunderground v.1.15,2013-02-03 16:00:00,
2013-02-03 11:05:00,28.7,22.7,29.92,NNE,18,5.0,6.0,78,0.04,,,0.02,195,Wunderground v.1.15,2013-02-03 16:05:00,
2013-02-03 11:10:00,28.1,22.1,29.92,NNE,28,4.0,8.0,78,0.00,,,0.02,315,Wunderground v.1.15,2013-02-03 16:10:00,
2013-02-03 11:15:00,28.1,22.1,29.92,NNE,26,5.0,8.0,78,0.00,,,0.02,294,Wunderground v.1.15,2013-02-03 16:15:00,
2013-02-03 11:20:00,28.0,21.7,29.91,NNE,17,6.0,6.0,77,0.00,,,0.03,192,Wunderground v.1.15,2013-02-03 16:20:00,
2013-02-03 11:25:00,28.0,22.0,29.91,NNE,17,5.0,6.0,78,0.00,,,0.03,566,Wunderground v.1.15,2013-02-03 16:25:00,
2013-02-03 11:30:00,28.1,21.8,29.91,NNE,31,5.0,5.0,77,0.00,,,0.03,323,Wunderground v.1.15,2013-02-03 16:30:00,
2013-02-03 11:35:00,28.5,22.2,29.90,NNE,31,4.0,5.0,77,0.00,,,0.03,548,Wunderground v.1.15,2013-02-03 16:35:00,
2013-02-03 11:45:00,29.7,22.4,29.89,NE,34,3.0,6.0,74,0.00,,,0.03,503,Wunderground v.1.15,2013-02-03 16:45:00,
2013-02-03 11:50:00,29.6,23.0,29.89,North,5,4.0,9.0,76,0.00,,,0.03,524,Wunderground v.1.15,2013-02-03 16:50:00,
2013-02-03 11:55:00,29.3,22.7,29.89,NNE,16,4.0,9.0,76,0.00,,,0.04,343,Wunderground v.1.15,2013-02-03 16:55:00,
2013-02-03 12:00:00,29.3,23.0,29.88,NNW,347,4.0,4.0,77,0.00,,,0.04,533,Wunderground v.1.15,2013-02-03 17:00:00,
2013-02-03 12:05:00,29.4,22.8,29.88,ENE,65,5.0,8.0,76,0.00,,,0.04,496,Wunderground v.1.15,2013-02-03 17:05:00,
2013-02-03 12:10:00,29.0,22.7,29.88,East,87,7.0,7.0,77,0.00,,,0.04,257,Wunderground v.1.15,2013-02-03 17:10:00,
2013-02-03 12:15:00,29.3,23.0,29.87,NE,45,5.0,7.0,77,0.00,,,0.04,499,Wunderground v.1.15,2013-02-03 17:15:00,
2013-02-03 12:20:00,29.2,22.6,29.87,NNE,29,5.0,8.0,76,0.00,,,0.05,548,Wunderground v.1.15,2013-02-03 17:20:00,
2013-02-03 12:25:00,29.2,22.9,29.86,NNE,22,5.0,8.0,77,0.00,,,0.05,288,Wunderground v.1.15,2013-02-03 17:25:00,
2013-02-03 12:30:00,28.6,22.3,29.86,NE,42,5.0,5.0,77,0.00,,,0.05,229,Wunderground v.1.15,2013-02-03 17:30:00,
2013-02-03 12:35:00,28.4,22.4,29.86,NNE,26,4.0,5.0,78,0.00,,,0.05,336,Wunderground v.1.15,2013-02-03 17:35:00,
2013-02-03 12:40:00,28.7,22.7,29.86,NE,49,3.0,3.0,78,0.00,,,0.05,420,Wunderground v.1.15,2013-02-03 17:40:00,
2013-02-03 12:45:00,28.7,22.1,29.85,NE,46,4.0,4.0,76,0.00,,,0.05,425,Wunderground v.1.15,2013-02-03 17:45:00,
2013-02-03 12:50:00,28.7,22.4,29.85,NNE,12,4.0,6.0,77,0.00,,,0.05,230,Wunderground v.1.15,2013-02-03 17:50:00,
2013-02-03 12:55:00,28.5,22.2,29.85,NE,34,4.0,6.0,77,0.00,,,0.05,190,Wunderground v.1.15,2013-02-03 17:55:00,
2013-02-03 13:00:00,28.3,22.0,29.85,NNE,22,4.0,4.0,77,0.00,,,0.05,199,Wunderground v.1.15,2013-02-03 18:00:00,
2013-02-03 13:05:00,28.2,21.9,29.85,NE,55,3.0,4.0,77,0.00,,,0.05,199,Wunderground v.1.15,2013-02-03 18:05:00,
2013-02-03 13:10:00,28.4,22.4,29.85,NNE,31,3.0,3.0,78,0.00,,,0.05,183,Wunderground v.1.15,2013-02-03 18:10:00,
2013-02-03 13:15:00,28.4,22.1,29.85,NNE,31,3.0,4.0,77,0.00,,,0.05,220,Wunderground v.1.15,2013-02-03 18:15:00,
2013-02-03 13:20:00,28.5,21.9,29.84,NW,321,3.0,3.0,76,0.00,,,0.05,258,Wunderground v.1.15,2013-02-03 18:20:00,
2013-02-03 13:25:00,28.7,21.8,29.85,NNW,344,4.0,4.0,75,0.00,,,0.05,269,Wunderground v.1.15,2013-02-03 18:25:00,
2013-02-03 13:30:00,28.9,21.3,29.84,NNE,25,4.0,4.0,73,0.00,,,0.05,427,Wunderground v.1.15,2013-02-03 18:30:00,
2013-02-03 13:35:00,28.6,20.4,29.84,NNE,25,3.0,4.0,71,0.00,,,0.05,341,Wunderground v.1.15,2013-02-03 18:35:00,
2013-02-03 13:40:00,28.6,20.4,29.83,NNE,25,2.0,2.0,71,0.00,,,0.05,318,Wunderground v.1.15,2013-02-03 18:40:00,
2013-02-03 13:45:00,28.9,20.7,29.83,NNW,327,2.0,5.0,71,0.00,,,0.05,299,Wunderground v.1.15,2013-02-03 18:45:00,
2013-02-03 13:50:00,29.0,20.4,29.83,WNW,301,3.0,3.0,70,0.00,,,0.05,301,Wunderground v.1.15,2013-02-03 18:50:00,
2013-02-03 13:55:00,28.7,19.8,29.83,WNW,302,3.0,4.0,69,0.00,,,0.05,336,Wunderground v.1.15,2013-02-03 18:55:00,
2013-02-03 14:00:00,28.9,18.6,29.83,North,5,2.0,2.0,65,0.00,,,0.05,308,Wunderground v.1.15,2013-02-03 19:00:00,
2013-02-03 14:05:00,29.1,19.2,29.83,NNE,16,3.0,3.0,66,0.00,,,0.05,336,Wunderground v.1.15,2013-02-03 19:05:00,
2013-02-03 14:10:00,29.4,19.1,29.82,North,11,3.0,3.0,65,0.00,,,0.05,236,Wunderground v.1.15,2013-02-03 19:10:00,
2013-02-03 14:15:00,29.3,18.6,29.82,North,9,2.0,3.0,64,0.00,,,0.05,250,Wunderground v.1.15,2013-02-03 19:15:00,
2013-02-03 14:20:00,29.6,19.3,29.82,NW,309,2.0,3.0,65,0.00,,,0.05,248,Wunderground v.1.15,2013-02-03 19:20:00,
2013-02-03 14:25:00,29.8,20.2,29.82,North,5,2.0,6.0,67,0.00,,,0.05,311,Wunderground v.1.15,2013-02-03 19:25:00,
2013-02-03 14:30:00,29.7,20.4,29.82,NNE,13,3.0,4.0,68,0.00,,,0.05,345,Wunderground v.1.15,2013-02-03 19:30:00,
2013-02-03 14:35:00,30.2,21.9,29.82,NW,320,4.0,5.0,71,0.00,,,0.05,330,Wunderground v.1.15,2013-02-03 19:35:00,
2013-02-03 14:40:00,30.2,21.2,29.82,NNW,329,4.0,5.0,69,0.00,,,0.05,290,Wunderground v.1.15,2013-02-03 19:40:00,
2013-02-03 14:45:00,29.9,21.3,29.82,WNW,299,4.0,5.0,70,0.00,,,0.05,295,Wunderground v.1.15,2013-02-03 19:45:00,
2013-02-03 14:50:00,29.8,21.2,29.81,WNW,302,4.0,4.0,70,0.00,,,0.05,202,Wunderground v.1.15,2013-02-03 19:50:00,
2013-02-03 14:55:00,29.7,21.4,29.81,NW,323,3.0,7.0,71,0.00,,,0.05,327,Wunderground v.1.15,2013-02-03 19:55:00,
2013-02-03 15:00:00,29.5,20.9,29.82,NW,320,4.0,4.0,70,0.00,,,0.05,181,Wunderground v.1.15,2013-02-03 20:00:00,
2013-02-03 15:05:00,29.4,20.8,29.81,NNW,348,5.0,6.0,70,0.00,,,0.05,111,Wunderground v.1.15,2013-02-03 20:05:00,
2013-02-03 15:10:00,29.5,20.9,29.81,WNW,293,5.0,5.0,70,0.00,,,0.05,102,Wunderground v.1.15,2013-02-03 20:10:00,
2013-02-03 15:15:00,29.8,20.9,29.82,West,265,5.0,5.0,69,0.00,,,0.05,97,Wunderground v.1.15,2013-02-03 20:15:00,
2013-02-03 15:20:00,29.9,20.6,29.81,WNW,282,4.0,5.0,68,0.00,,,0.05,91,Wunderground v.1.15,2013-02-03 20:20:00,
2013-02-03 15:25:00,29.7,20.4,29.81,WSW,250,3.0,5.0,68,0.00,,,0.05,91,Wunderground v.1.15,2013-02-03 20:25:00,
2013-02-03 15:30:00,29.5,20.2,29.81,West,275,3.0,5.0,68,0.00,,,0.05,91,Wunderground v.1.15,2013-02-03 20:30:00,
2013-02-03 15:35:00,29.6,20.7,29.81,WNW,300,5.0,5.0,69,0.00,,,0.05,97,Wunderground v.1.15,2013-02-03 20:35:00,
2013-02-03 15:40:00,29.7,20.8,29.81,NW,314,4.0,5.0,69,0.00,,,0.05,93,Wunderground v.1.15,2013-02-03 20:40:00,
2013-02-03 15:45:00,29.6,21.0,29.81,NW,314,5.0,5.0,70,0.00,,,0.05,90,Wunderground v.1.15,2013-02-03 20:45:00,
2013-02-03 15:50:00,29.4,20.8,29.81,North,350,5.0,5.0,70,0.00,,,0.05,97,Wunderground v.1.15,2013-02-03 20:50:00,
2013-02-03 15:55:00,29.6,21.0,29.81,North,350,3.0,5.0,70,0.00,,,0.05,95,Wunderground v.1.15,2013-02-03 20:55:00,
2013-02-03 16:00:00,29.7,21.1,29.81,West,277,2.0,3.0,70,0.00,,,0.05,90,Wunderground v.1.15,2013-02-03 21:00:00,
2013-02-03 16:05:00,29.5,20.9,29.81,NW,319,3.0,3.0,70,0.00,,,0.05,81,Wunderground v.1.15,2013-02-03 21:05:00,
2013-02-03 16:10:00,29.3,20.7,29.81,West,273,4.0,4.0,70,0.00,,,0.05,72,Wunderground v.1.15,2013-02-03 21:10:00,
2013-02-03 16:15:00,29.1,20.5,29.81,West,273,3.0,4.0,70,0.00,,,0.05,69,Wunderground v.1.15,2013-02-03 21:15:00,
2013-02-03 16:20:00,29.0,20.8,29.81,West,273,2.0,2.0,71,0.00,,,0.05,63,Wunderground v.1.15,2013-02-03 21:20:00,
2013-02-03 16:25:00,28.8,20.2,29.80,West,275,3.0,3.0,70,0.00,,,0.05,56,Wunderground v.1.15,2013-02-03 21:25:00,
2013-02-03 16:30:00,28.8,20.6,29.80,West,277,2.0,2.0,71,0.00,,,0.05,54,Wunderground v.1.15,2013-02-03 21:30:00,
2013-02-03 16:35:00,28.9,20.7,29.81,West,278,2.0,2.0,71,0.00,,,0.05,60,Wunderground v.1.15,2013-02-03 21:35:00,
2013-02-03 16:40:00,29.0,20.8,29.80,West,280,3.0,3.0,71,0.00,,,0.05,58,Wunderground v.1.15,2013-02-03 21:40:00,
2013-02-03 16:50:00,29.0,20.8,29.81,NW,306,3.0,4.0,71,0.00,,,0.05,32,Wunderground v.1.15,2013-02-03 21:50:00,
2013-02-03 16:55:00,29.0,20.8,29.81,WNW,288,3.0,7.0,71,0.00,,,0.05,25,Wunderground v.1.15,2013-02-03 21:55:00,
2013-02-03 17:00:00,29.0,20.8,29.81,WNW,288,3.0,4.0,71,0.00,,,0.05,18,Wunderground v.1.15,2013-02-03 22:00:00,
2013-02-03 17:05:00,28.9,20.7,29.81,WNW,299,3.0,4.0,71,0.00,,,0.05,14,Wunderground v.1.15,2013-02-03 22:05:00,
2013-02-03 17:10:00,28.8,20.6,29.81,WNW,299,2.0,2.0,71,0.00,,,0.05,7,Wunderground v.1.15,2013-02-03 22:10:00,
2013-02-03 17:15:00,28.5,20.3,29.81,NW,306,1.0,4.0,71,0.00,,,0.05,5,Wunderground v.1.15,2013-02-03 22:15:00,
2013-02-03 17:20:00,28.1,20.2,29.80,NW,306,2.0,4.0,72,0.00,,,0.05,0,Wunderground v.1.15,2013-02-03 22:20:00,
2013-02-03 17:25:00,27.9,20.0,29.81,NW,306,2.0,5.0,72,0.00,,,0.05,0,Wunderground v.1.15,2013-02-03 22:25:00,
2013-02-03 17:30:00,27.6,19.8,29.81,NW,306,2.0,2.0,72,0.00,,,0.05,0,Wunderground v.1.15,2013-02-03 22:30:00,
2013-02-03 17:35:00,27.5,20.0,29.81,NW,306,2.0,2.0,73,0.00,,,0.05,0,Wunderground v.1.15,2013-02-03 22:35:00,
2013-02-03 17:40:00,27.1,19.6,29.81,NW,306,1.0,1.0,73,0.00,,,0.05,0,Wunderground v.1.15,2013-02-03 22:40:00,
2013-02-03 17:45:00,26.9,19.4,29.81,NW,306,1.0,1.0,73,0.00,,,0.05,0,Wunderground v.1.15,2013-02-03 22:45:00,
2013-02-03 17:50:00,26.8,19.6,29.81,NW,306,1.0,1.0,74,0.00,,,0.05,0,Wunderground v.1.15,2013-02-03 22:50:00,
2013-02-03 17:55:00,26.5,19.6,29.81,NW,306,0.0,1.0,75,0.00,,,0.05,0,Wunderground v.1.15,2013-02-03 22:55:00,
2013-02-03 18:00:00,26.5,20.0,29.81,NW,306,0.0,0.0,76,0.00,,,0.05,0,Wunderground v.1.15,2013-02-03 23:00:00,
2013-02-03 18:05:00,26.2,20.0,29.81,NW,306,0.0,0.0,77,0.00,,,0.05,0,Wunderground v.1.15,2013-02-03 23:05:00,
2013-02-03 18:10:00,26.0,20.1,29.81,NW,306,0.0,0.0,78,0.00,,,0.05,0,Wunderground v.1.15,2013-02-03 23:10:00,
2013-02-03 18:15:00,25.7,20.1,29.81,NW,306,0.0,0.0,79,0.00,,,0.05,0,Wunderground v.1.15,2013-02-03 23:15:00,
2013-02-03 18:20:00,25.4,19.8,29.81,NW,306,0.0,0.0,79,0.00,,,0.05,0,Wunderground v.1.15,2013-02-03 23:20:00,
2013-02-03 18:25:00,25.2,19.9,29.81,NW,306,0.0,0.0,80,0.00,,,0.05,0,Wunderground v.1.15,2013-02-03 23:25:00,
2013-02-03 18:30:00,24.9,19.9,29.81,NW,306,0.0,0.0,81,0.00,,,0.05,0,Wunderground v.1.15,2013-02-03 23:30:00,
2013-02-03 18:35:00,24.7,19.7,29.81,NW,306,0.0,0.0,81,0.00,,,0.05,0,Wunderground v.1.15,2013-02-03 23:35:00,
2013-02-03 18:40:00,24.6,19.6,29.81,NW,306,0.0,0.0,81,0.00,,,0.05,0,Wunderground v.1.15,2013-02-03 23:40:00,
2013-02-03 18:45:00,24.3,19.6,29.82,NW,306,0.0,0.0,82,0.00,,,0.05,0,Wunderground v.1.15,2013-02-03 23:45:00,
2013-02-03 18:50:00,23.9,19.2,29.81,NW,306,0.0,0.0,82,0.00,,,0.05,0,Wunderground v.1.15,2013-02-03 23:50:00,
2013-02-03 18:55:00,23.7,19.0,29.81,NW,306,0.0,0.0,82,0.00,,,0.05,0,Wunderground v.1.15,2013-02-03 23:55:00,
2013-02-03 19:00:00,23.4,18.7,29.81,NW,306,0.0,0.0,82,0.00,,,0.05,0,Wunderground v.1.15,2013-02-04 00:00:00,
2013-02-03 19:05:00,23.2,18.8,29.81,NW,306,0.0,0.0,83,0.00,,,0.05,0,Wunderground v.1.15,2013-02-04 00:05:00,
2013-02-03 19:10:00,23.0,18.6,29.81,NW,306,0.0,0.0,83,0.00,,,0.05,0,Wunderground v.1.15,2013-02-04 00:10:00,
2013-02-03 19:15:00,22.7,18.3,29.82,NW,306,0.0,0.0,83,0.00,,,0.05,0,Wunderground v.1.15,2013-02-04 00:15:00,
2013-02-03 19:20:00,22.5,18.4,29.82,NW,306,0.0,0.0,84,0.00,,,0.05,0,Wunderground v.1.15,2013-02-04 00:20:00,
2013-02-03 19:25:00,22.1,18.0,29.82,NW,306,0.0,0.0,84,0.00,,,0.05,0,Wunderground v.1.15,2013-02-04 00:25:00,
2013-02-03 19:30:00,22.1,18.3,29.82,NW,306,0.0,0.0,85,0.00,,,0.05,0,Wunderground v.1.15,2013-02-04 00:30:00,
2013-02-03 19:35:00,21.8,18.0,29.82,NW,306,0.0,0.0,85,0.00,,,0.05,0,Wunderground v.1.15,2013-02-04 00:35:00,
2013-02-03 19:40:00,21.6,17.8,29.83,NW,306,0.0,0.0,85,0.00,,,0.05,0,Wunderground v.1.15,2013-02-04 00:40:00,
2013-02-03 19:45:00,21.5,18.0,29.83,NW,306,0.0,0.0,86,0.00,,,0.05,0,Wunderground v.1.15,2013-02-04 00:45:00,
2013-02-03 19:50:00,21.2,17.7,29.83,NW,306,0.0,0.0,86,0.00,,,0.05,0,Wunderground v.1.15,2013-02-04 00:50:00,
2013-02-03 19:55:00,21.1,17.6,29.82,NW,306,0.0,0.0,86,0.00,,,0.05,0,Wunderground v.1.15,2013-02-04 00:55:00,
2013-02-03 20:00:00,20.9,17.4,29.82,NW,306,0.0,0.0,86,0.00,,,0.05,0,Wunderground v.1.15,2013-02-04 01:00:00,
2013-02-03 20:05:00,20.6,17.3,29.82,NW,306,0.0,0.0,87,0.00,,,0.05,0,Wunderground v.1.15,2013-02-04 01:05:00,
2013-02-03 20:10:00,20.5,17.2,29.83,NW,306,0.0,0.0,87,0.00,,,0.05,0,Wunderground v.1.15,2013-02-04 01:10:00,
2013-02-03 20:15:00,20.5,17.2,29.83,NW,306,0.0,0.0,87,0.00,,,0.05,0,Wunderground v.1.15,2013-02-04 01:15:00,
2013-02-03 20:20:00,20.6,17.6,29.83,NW,306,0.0,0.0,88,0.00,,,0.05,0,Wunderground v.1.15,2013-02-04 01:20:00,
2013-02-03 20:25:00,20.4,17.1,29.83,NW,306,0.0,0.0,87,0.00,,,0.05,0,Wunderground v.1.15,2013-02-04 01:25:00,
2013-02-03 20:30:00,20.2,17.2,29.83,NW,306,0.0,2.0,88,0.00,,,0.05,0,Wunderground v.1.15,2013-02-04 01:30:00,
2013-02-03 20:35:00,20.0,17.0,29.83,NW,306,1.0,2.0,88,0.00,,,0.05,0,Wunderground v.1.15,2013-02-04 01:35:00,
2013-02-03 20:40:00,19.9,16.9,29.83,WNW,293,1.0,1.0,88,0.00,,,0.05,0,Wunderground v.1.15,2013-02-04 01:40:00,
2013-02-03 20:45:00,20.0,17.0,29.84,WNW,293,1.0,1.0,88,0.00,,,0.05,0,Wunderground v.1.15,2013-02-04 01:45:00,
2013-02-03 20:50:00,20.1,17.4,29.83,WNW,293,1.0,1.0,89,0.00,,,0.05,0,Wunderground v.1.15,2013-02-04 01:50:00,
2013-02-03 20:55:00,20.1,17.4,29.83,WNW,293,0.0,1.0,89,0.00,,,0.05,0,Wunderground v.1.15,2013-02-04 01:55:00,
2013-02-03 21:00:00,20.3,17.6,29.83,WNW,293,0.0,1.0,89,0.00,,,0.05,0,Wunderground v.1.15,2013-02-04 02:00:00,
2013-02-03 21:05:00,20.2,17.5,29.83,WNW,293,0.0,1.0,89,0.00,,,0.05,0,Wunderground v.1.15,2013-02-04 02:05:00,
2013-02-03 21:10:00,20.2,17.5,29.83,WNW,293,0.0,0.0,89,0.00,,,0.05,0,Wunderground v.1.15,2013-02-04 02:10:00,
2013-02-03 21:15:00,20.2,17.5,29.83,WNW,293,0.0,0.0,89,0.00,,,0.05,0,Wunderground v.1.15,2013-02-04 02:15:00,
2013-02-03 21:20:00,20.1,17.1,29.83,WNW,293,0.0,0.0,88,0.00,,,0.05,0,Wunderground v.1.15,2013-02-04 02:20:00,
2013-02-03 21:25:00,20.0,17.0,29.83,WNW,293,0.0,0.0,88,0.00,,,0.05,0,Wunderground v.1.15,2013-02-04 02:25:00,
2013-02-03 21:30:00,19.9,16.9,29.84,WNW,293,0.0,0.0,88,0.00,,,0.05,0,Wunderground v.1.15,2013-02-04 02:30:00,
2013-02-03 21:35:00,19.8,16.8,29.83,WNW,293,0.0,0.0,88,0.00,,,0.05,0,Wunderground v.1.15,2013-02-04 02:35:00,
2013-02-03 21:40:00,19.6,16.6,29.83,WNW,293,0.0,0.0,88,0.00,,,0.05,0,Wunderground v.1.15,2013-02-04 02:40:00,
2013-02-03 21:45:00,19.5,16.8,29.83,WNW,293,0.0,0.0,89,0.00,,,0.05,0,Wunderground v.1.15,2013-02-04 02:45:00,
2013-02-03 21:50:00,19.6,16.9,29.83,WNW,293,0.0,0.0,89,0.00,,,0.05,0,Wunderground v.1.15,2013-02-04 02:50:00,
2013-02-03 21:55:00,19.5,16.5,29.83,WNW,293,0.0,0.0,88,0.00,,,0.05,0,Wunderground v.1.15,2013-02-04 02:55:00,
2013-02-03 22:00:00,19.4,16.4,29.83,WNW,293,0.0,0.0,88,0.00,,,0.05,0,Wunderground v.1.15,2013-02-04 03:00:00,
2013-02-03 22:05:00,19.4,16.7,29.83,WNW,293,0.0,0.0,89,0.00,,,0.05,0,Wunderground v.1.15,2013-02-04 03:05:00,
2013-02-03 22:10:00,19.2,16.2,29.83,WNW,293,0.0,0.0,88,0.00,,,0.05,0,Wunderground v.1.15,2013-02-04 03:10:00,
2013-02-03 22:15:00,19.0,16.3,29.83,WNW,293,0.0,0.0,89,0.00,,,0.05,0,Wunderground v.1.15,2013-02-04 03:15:00,
2013-02-03 22:20:00,19.0,16.3,29.83,WNW,293,0.0,0.0,89,0.00,,,0.05,0,Wunderground v.1.15,2013-02-04 03:20:00,
2013-02-03 22:25:00,19.0,16.3,29.83,WNW,293,0.0,0.0,89,0.00,,,0.05,0,Wunderground v.1.15,2013-02-04 03:25:00,
2013-02-03 22:30:00,18.9,16.2,29.83,WNW,293,0.0,0.0,89,0.00,,,0.05,0,Wunderground v.1.15,2013-02-04 03:30:00,
2013-02-03 22:35:00,18.8,16.1,29.83,WNW,293,0.0,0.0,89,0.00,,,0.05,0,Wunderground v.1.15,2013-02-04 03:35:00,
2013-02-03 22:40:00,18.7,16.3,29.83,WNW,293,0.0,0.0,90,0.00,,,0.05,0,Wunderground v.1.15,2013-02-04 03:40:00,
2013-02-03 22:45:00,18.5,16.1,29.83,WNW,293,0.0,0.0,90,0.00,,,0.05,0,Wunderground v.1.15,2013-02-04 03:45:00,
2013-02-03 22:50:00,18.4,16.0,29.83,WNW,293,0.0,0.0,90,0.00,,,0.05,0,Wunderground v.1.15,2013-02-04 03:50:00,
2013-02-03 22:55:00,18.6,16.2,29.83,WNW,293,0.0,0.0,90,0.00,,,0.05,0,Wunderground v.1.15,2013-02-04 03:55:00,
2013-02-03 23:00:00,18.8,16.6,29.83,WNW,293,0.0,0.0,91,0.00,,,0.05,0,Wunderground v.1.15,2013-02-04 04:00:00,
2013-02-03 23:05:00,19.0,16.8,29.82,WNW,293,0.0,0.0,91,0.00,,,0.05,0,Wunderground v.1.15,2013-02-04 04:05:00,
2013-02-03 23:10:00,19.3,17.1,29.83,WNW,293,0.0,0.0,91,0.00,,,0.05,0,Wunderground v.1.15,2013-02-04 04:10:00,
2013-02-03 23:15:00,19.5,17.3,29.82,WNW,293,0.0,0.0,91,0.00,,,0.05,0,Wunderground v.1.15,2013-02-04 04:15:00,
2013-02-03 23:20:00,19.8,17.6,29.82,WNW,293,0.0,0.0,91,0.00,,,0.05,0,Wunderground v.1.15,2013-02-04 04:20:00,
2013-02-03 23:25:00,20.0,17.8,29.82,WNW,293,0.0,0.0,91,0.00,,,0.05,0,Wunderground v.1.15,2013-02-04 04:25:00,
2013-02-03 23:30:00,20.0,17.8,29.82,WNW,293,0.0,0.0,91,0.00,,,0.05,0,Wunderground v.1.15,2013-02-04 04:30:00,
2013-02-03 23:40:00,20.6,18.4,29.82,WNW,293,0.0,0.0,91,0.00,,,0.05,0,Wunderground v.1.15,2013-02-04 04:40:00,
2013-02-03 23:45:00,20.9,18.7,29.82,WNW,293,0.0,0.0,91,0.00,,,0.05,0,Wunderground v.1.15,2013-02-04 04:45:00,
2013-02-03 23:50:00,21.2,19.0,29.82,WNW,293,0.0,0.0,91,0.00,,,0.05,0,Wunderground v.1.15,2013-02-04 04:50:00,
2013-02-03 23:55:00,21.1,18.6,29.82,WNW,293,0.0,0.0,90,0.00,,,0.05,0,Wunderground v.1.15,2013-02-04 04:55:00,